Torna al catalogo

BREEZE-KM DEB

AttivoPO
NORAD 41721·DEBRIS·🇷🇺 Russia

Lanciato Mar 31, 2015 da Plesetsk Cosmodrome

Loading…

Prossimi Passaggi (prossime 24 ore)

TLE

AggiornatoSource: Space-Track

Epoca: Sep 14, 2026, 01:36 UTC

1 41721U 15020J   26257.06689804 -.00000004  00000-0 -52752-4 0  9997
2 41721  82.4958 176.5720 0243776 291.8364  65.6966 12.74753659523516

Traccia BREEZE-KM DEB in tempo reale con AllMySat

Download on the App Store